Time,TemperatureF,DewpointF,PressureIn,WindDirection,WindDirectionDegrees,WindSpeedMPH,WindSpeedGustMPH,Humidity,HourlyPrecipIn,Conditions,Clouds,dailyrainin,SoftwareType,DateUTC
2013-09-13 00:00:00,58.0,57.5,27.18,ESE,113,1.3,2.9,98,0.00,--,--,0.00,awk and wget,2013-09-13 04:00:00,
2013-09-13 00:05:00,57.8,57.4,27.18,ESE,121,2.6,3.0,98,0.00,--,--,0.00,awk and wget,2013-09-13 04:05:00,
2013-09-13 00:10:00,58.0,57.6,27.18,ESE,107,1.5,3.0,98,0.00,--,--,0.00,awk and wget,2013-09-13 04:10:00,
2013-09-13 00:15:00,57.7,57.3,27.18,SSE,149,0.4,3.0,98,0.00,--,--,0.00,awk and wget,2013-09-13 04:15:00,
2013-09-13 00:20:00,57.6,57.2,27.18,SE,145,1.0,3.0,98,0.00,--,--,0.00,awk and wget,2013-09-13 04:20:00,
2013-09-13 00:25:00,57.8,57.4,27.18,ESE,118,2.4,3.0,98,0.00,--,--,0.00,awk and wget,2013-09-13 04:25:00,
2013-09-13 00:30:00,57.7,57.3,27.18,NNW,341,0.3,3.0,98,0.00,--,--,0.00,awk and wget,2013-09-13 04:30:00,
2013-09-13 00:35:00,57.8,57.5,27.18,SSE,154,1.9,3.0,98,0.00,--,--,0.00,awk and wget,2013-09-13 04:35:00,
2013-09-13 00:40:00,57.5,57.2,27.18,NNW,332,0.2,2.9,98,0.00,--,--,0.00,awk and wget,2013-09-13 04:40:00,
2013-09-13 00:45:00,57.8,57.6,27.17,East,91,0.7,2.9,99,0.00,--,--,0.00,awk and wget,2013-09-13 04:45:00,
2013-09-13 00:50:00,58.0,57.7,27.17,ESE,117,1.8,2.9,99,0.00,--,--,0.00,awk and wget,2013-09-13 04:50:00,
2013-09-13 00:55:00,57.9,57.6,27.17,SSE,155,1.9,2.9,99,0.00,--,--,0.00,awk and wget,2013-09-13 04:55:00,
2013-09-13 01:00:00,57.8,57.5,27.17,NNW,329,1.9,2.9,98,0.00,--,--,0.00,awk and wget,2013-09-13 05:00:00,
2013-09-13 01:05:00,57.6,57.4,27.17,NNW,328,2.1,2.9,99,0.00,--,--,0.00,awk and wget,2013-09-13 05:05:00,
2013-09-13 01:10:00,58.0,57.7,27.16,East,89,2.0,2.9,99,0.00,--,--,0.00,awk and wget,2013-09-13 05:10:00,
2013-09-13 01:15:00,58.1,57.9,27.16,NNW,344,1.7,2.9,99,0.00,--,--,0.00,awk and wget,2013-09-13 05:15:00,
2013-09-13 01:20:00,58.1,57.8,27.16,NNW,338,0.2,2.9,99,0.00,--,--,0.00,awk and wget,2013-09-13 05:20:00,
2013-09-13 01:25:00,57.9,57.7,27.16,NNW,328,0.1,2.9,99,0.00,--,--,0.00,awk and wget,2013-09-13 05:25:00,
2013-09-13 01:30:00,57.8,57.6,27.16,NNW,328,2.9,2.9,99,0.00,--,--,0.00,awk and wget,2013-09-13 05:30:00,
2013-09-13 01:35:00,57.6,57.4,27.16,NNW,330,1.9,2.9,99,0.00,--,--,0.00,awk and wget,2013-09-13 05:35:00,
2013-09-13 01:40:00,58.1,57.9,27.16,North,357,3.8,3.8,99,0.00,--,--,0.00,awk and wget,2013-09-13 05:40:00,
2013-09-13 01:45:00,57.9,57.7,27.15,NNW,328,1.2,2.9,99,0.00,--,--,0.00,awk and wget,2013-09-13 05:45:00,
2013-09-13 01:50:00,57.8,57.6,27.15,SSE,148,4.0,4.0,99,0.00,--,--,0.00,awk and wget,2013-09-13 05:50:00,
2013-09-13 01:55:00,57.8,57.6,27.15,NNW,332,0.1,3.0,99,0.00,--,--,0.00,awk and wget,2013-09-13 05:55:00,
2013-09-13 02:00:00,57.9,57.7,27.16,North,351,1.5,3.0,99,0.00,--,--,0.00,awk and wget,2013-09-13 06:00:00,
2013-09-13 02:05:00,58.3,58.2,27.15,NNW,330,1.1,3.0,99,0.00,--,--,0.00,awk and wget,2013-09-13 06:05:00,
2013-09-13 02:10:00,58.2,58.1,27.15,NNW,329,2.2,2.9,99,0.00,--,--,0.00,awk and wget,2013-09-13 06:10:00,
2013-09-13 02:15:00,57.8,57.6,27.15,NNW,329,1.3,2.9,99,0.00,--,--,0.00,awk and wget,2013-09-13 06:15:00,
2013-09-13 02:20:00,57.8,57.6,27.15,NNW,332,1.2,2.9,99,0.00,--,--,0.00,awk and wget,2013-09-13 06:20:00,
2013-09-13 02:30:00,57.2,57.0,27.15,NNW,329,1.3,2.9,99,0.00,--,--,0.00,awk and wget,2013-09-13 06:30:00,
2013-09-13 02:35:00,57.0,56.8,27.15,SSE,148,1.5,2.9,99,0.00,--,--,0.00,awk and wget,2013-09-13 06:35:00,
2013-09-13 02:40:00,57.0,56.9,27.15,East,99,3.6,3.6,99,0.00,--,--,0.00,awk and wget,2013-09-13 06:40:00,
2013-09-13 02:45:00,56.7,56.5,27.15,East,97,4.3,4.3,99,0.00,--,--,0.00,awk and wget,2013-09-13 06:45:00,
2013-09-13 02:50:00,56.7,56.5,27.15,ENE,57,2.2,2.9,99,0.00,--,--,0.00,awk and wget,2013-09-13 06:50:00,
2013-09-13 02:55:00,56.6,56.4,27.14,ESE,123,2.7,2.9,99,0.00,--,--,0.00,awk and wget,2013-09-13 06:55:00,
2013-09-13 03:00:00,55.9,55.7,27.14,SSE,147,0.4,2.9,99,0.00,--,--,0.00,awk and wget,2013-09-13 07:00:00,
2013-09-13 03:05:00,55.9,55.7,27.14,SE,131,0.3,2.9,99,0.00,--,--,0.00,awk and wget,2013-09-13 07:05:00,
2013-09-13 03:10:00,56.4,56.3,27.13,ESE,116,2.7,3.0,99,0.00,--,--,0.00,awk and wget,2013-09-13 07:10:00,
2013-09-13 03:15:00,55.5,55.3,27.13,NNW,335,1.1,3.0,99,0.00,--,--,0.00,awk and wget,2013-09-13 07:15:00,
2013-09-13 03:20:00,55.6,55.4,27.13,NNW,328,5.5,5.5,99,0.00,--,--,0.00,awk and wget,2013-09-13 07:20:00,
2013-09-13 03:25:00,55.2,55.1,27.13,NNW,328,6.2,6.2,99,0.00,--,--,0.00,awk and wget,2013-09-13 07:25:00,
2013-09-13 03:30:00,55.3,55.2,27.13,NNW,329,9.3,9.3,99,0.00,--,--,0.00,awk and wget,2013-09-13 07:30:00,
2013-09-13 03:35:00,56.5,56.4,27.13,NNW,329,11.2,11.2,99,0.00,--,--,0.00,awk and wget,2013-09-13 07:35:00,
2013-09-13 03:40:00,56.2,56.1,27.13,NNW,329,6.1,6.1,99,0.00,--,--,0.00,awk and wget,2013-09-13 07:40:00,
2013-09-13 03:45:00,56.3,56.2,27.13,NNW,329,6.0,6.0,99,0.00,--,--,0.00,awk and wget,2013-09-13 07:45:00,
2013-09-13 03:50:00,56.7,56.6,27.13,NNW,328,7.6,7.6,99,0.00,--,--,0.00,awk and wget,2013-09-13 07:50:00,
2013-09-13 04:00:00,56.8,56.7,27.13,NNW,334,5.8,5.8,99,0.00,--,--,0.00,awk and wget,2013-09-13 08:00:00,
2013-09-13 04:05:00,56.7,56.7,27.13,NNW,329,5.0,5.0,99,0.00,--,--,0.00,awk and wget,2013-09-13 08:05:00,
2013-09-13 04:10:00,56.8,56.7,27.13,ESE,120,0.1,3.0,99,0.00,--,--,0.00,awk and wget,2013-09-13 08:10:00,
2013-09-13 04:20:00,57.0,57.0,27.13,NNW,330,7.1,7.1,99,0.00,--,--,0.00,awk and wget,2013-09-13 08:20:00,
2013-09-13 04:30:00,58.1,58.0,27.13,NNW,329,11.0,11.0,99,0.00,--,--,0.00,awk and wget,2013-09-13 08:30:00,
2013-09-13 04:35:00,57.8,57.7,27.13,NNW,329,8.1,8.1,99,0.00,--,--,0.00,awk and wget,2013-09-13 08:35:00,
2013-09-13 04:40:00,57.6,57.5,27.13,NNW,329,7.7,7.7,99,0.00,--,--,0.00,awk and wget,2013-09-13 08:40:00,
2013-09-13 04:45:00,57.5,57.4,27.13,NNW,330,5.7,5.7,99,0.00,--,--,0.00,awk and wget,2013-09-13 08:45:00,
2013-09-13 04:50:00,57.6,57.5,27.13,NNW,329,5.3,5.3,99,0.00,--,--,0.00,awk and wget,2013-09-13 08:50:00,
2013-09-13 04:55:00,57.9,57.8,27.13,NNW,330,5.9,5.9,99,0.00,--,--,0.00,awk and wget,2013-09-13 08:55:00,
2013-09-13 05:00:00,58.1,58.0,27.13,NNW,332,3.6,3.6,99,0.00,--,--,0.00,awk and wget,2013-09-13 09:00:00,
2013-09-13 05:10:00,58.1,58.0,27.13,NNW,329,5.3,5.3,99,0.00,--,--,0.00,awk and wget,2013-09-13 09:10:00,
2013-09-13 05:15:00,58.2,58.1,27.13,North,350,1.9,2.9,99,0.00,--,--,0.00,awk and wget,2013-09-13 09:15:00,
2013-09-13 05:20:00,58.9,58.7,27.14,NNE,16,7.0,7.0,99,0.00,--,--,0.00,awk and wget,2013-09-13 09:20:00,
2013-09-13 05:25:00,60.8,60.5,27.14,North,352,6.2,6.2,98,0.00,--,--,0.00,awk and wget,2013-09-13 09:25:00,
2013-09-13 05:30:00,60.3,58.2,27.14,North,351,8.2,8.2,92,0.00,--,--,0.00,awk and wget,2013-09-13 09:30:00,
2013-09-13 05:35:00,59.8,57.0,27.15,North,358,3.9,3.9,90,0.00,--,--,0.00,awk and wget,2013-09-13 09:35:00,
2013-09-13 05:40:00,59.5,57.0,27.15,NNE,18,5.5,5.5,91,0.00,--,--,0.00,awk and wget,2013-09-13 09:40:00,
2013-09-13 05:45:00,59.4,56.7,27.15,NNE,29,5.9,5.9,90,0.00,--,--,0.00,awk and wget,2013-09-13 09:45:00,
2013-09-13 05:50:00,58.9,56.6,27.15,NE,55,9.2,9.2,91,0.00,--,--,0.00,awk and wget,2013-09-13 09:50:00,
2013-09-13 05:55:00,58.5,56.5,27.15,NNE,30,4.4,4.4,93,0.00,--,--,0.00,awk and wget,2013-09-13 09:55:00,
2013-09-13 06:00:00,58.2,56.7,27.15,ENE,75,6.9,6.9,94,0.00,--,--,0.00,awk and wget,2013-09-13 10:00:00,
2013-09-13 06:10:00,57.9,56.7,27.15,NE,52,8.5,8.5,95,0.00,--,--,0.00,awk and wget,2013-09-13 10:10:00,
2013-09-13 06:15:00,57.7,56.6,27.16,ENE,66,5.2,5.2,95,0.00,--,--,0.00,awk and wget,2013-09-13 10:15:00,
2013-09-13 06:20:00,57.5,56.4,27.15,NE,56,8.2,8.2,96,0.00,--,--,0.00,awk and wget,2013-09-13 10:20:00,
2013-09-13 06:30:00,57.1,56.0,27.15,NE,55,4.3,4.3,96,0.00,--,--,0.00,awk and wget,2013-09-13 10:30:00,
2013-09-13 06:35:00,56.9,55.9,27.15,ENE,57,3.0,3.0,96,0.00,--,--,0.00,awk and wget,2013-09-13 10:35:00,
2013-09-13 06:40:00,56.6,55.6,27.15,NNE,26,1.4,3.0,96,0.00,--,--,0.00,awk and wget,2013-09-13 10:40:00,
2013-09-13 06:45:00,56.5,55.6,27.15,NNE,18,2.0,3.0,96,0.00,--,--,0.00,awk and wget,2013-09-13 10:45:00,
2013-09-13 06:50:00,56.3,55.5,27.16,NE,42,4.1,4.1,97,0.00,--,--,0.00,awk and wget,2013-09-13 10:50:00,
2013-09-13 07:00:00,55.9,55.3,27.16,NNE,14,2.2,3.0,97,0.00,--,--,0.00,awk and wget,2013-09-13 11:00:00,
2013-09-13 07:05:00,55.9,55.3,27.16,NE,50,4.9,4.9,97,0.00,--,--,0.00,awk and wget,2013-09-13 11:05:00,
2013-09-13 07:15:00,55.5,54.9,27.16,NNE,18,1.3,3.0,97,0.00,--,--,0.00,awk and wget,2013-09-13 11:15:00,
2013-09-13 07:20:00,55.6,55.1,27.16,NE,40,2.8,3.0,97,0.00,--,--,0.00,awk and wget,2013-09-13 11:20:00,
2013-09-13 07:30:00,55.9,55.3,27.16,North,11,2.7,2.9,98,0.00,--,--,0.00,awk and wget,2013-09-13 11:30:00,
2013-09-13 07:35:00,55.7,55.1,27.17,NNE,21,2.1,2.9,97,0.00,--,--,0.00,awk and wget,2013-09-13 11:35:00,
2013-09-13 07:40:00,55.8,55.3,27.17,NNE,17,3.1,3.1,97,0.00,--,--,0.00,awk and wget,2013-09-13 11:40:00,
2013-09-13 07:45:00,56.4,55.9,27.17,NNE,18,2.8,2.9,98,0.00,--,--,0.00,awk and wget,2013-09-13 11:45:00,
2013-09-13 07:50:00,56.9,56.4,27.17,NE,43,3.7,3.7,98,0.00,--,--,0.00,awk and wget,2013-09-13 11:50:00,
2013-09-13 08:00:00,58.4,57.9,27.17,East,79,1.8,2.9,98,0.00,--,--,0.00,awk and wget,2013-09-13 12:00:00,
2013-09-13 08:05:00,58.6,58.1,27.17,NNE,24,2.2,2.9,98,0.00,--,--,0.00,awk and wget,2013-09-13 12:05:00,
2013-09-13 08:10:00,59.3,58.6,27.17,NNE,24,2.6,2.9,97,0.00,--,--,0.00,awk and wget,2013-09-13 12:10:00,
2013-09-13 08:15:00,59.8,58.8,27.17,NE,51,1.4,3.0,96,0.00,--,--,0.00,awk and wget,2013-09-13 12:15:00,
2013-09-13 08:20:00,59.3,58.0,27.17,North,352,1.5,3.0,95,0.00,--,--,0.00,awk and wget,2013-09-13 12:20:00,
2013-09-13 08:30:00,59.4,56.7,27.17,North,358,4.5,4.5,90,0.00,--,--,0.00,awk and wget,2013-09-13 12:30:00,
2013-09-13 08:35:00,60.1,56.0,27.18,North,2,7.1,7.1,86,0.00,--,--,0.00,awk and wget,2013-09-13 12:35:00,
2013-09-13 08:40:00,60.4,54.9,27.17,NNW,340,3.1,3.1,82,0.00,--,--,0.00,awk and wget,2013-09-13 12:40:00,
2013-09-13 08:45:00,60.7,53.8,27.17,NNW,344,3.3,3.3,77,0.00,--,--,0.00,awk and wget,2013-09-13 12:45:00,
2013-09-13 08:50:00,61.2,54.6,27.17,North,358,4.8,4.8,78,0.00,--,--,0.00,awk and wget,2013-09-13 12:50:00,
2013-09-13 09:00:00,61.2,52.7,27.17,North,355,6.8,6.8,73,0.00,--,--,0.00,awk and wget,2013-09-13 13:00:00,
2013-09-13 09:10:00,63.1,54.0,27.17,NNE,18,3.8,3.8,72,0.00,--,--,0.00,awk and wget,2013-09-13 13:10:00,
2013-09-13 09:15:00,62.8,55.2,27.17,NNE,16,3.7,3.7,76,0.00,--,--,0.00,awk and wget,2013-09-13 13:15:00,
2013-09-13 09:20:00,61.7,52.5,27.18,North,357,6.3,6.3,71,0.00,--,--,0.00,awk and wget,2013-09-13 13:20:00,
2013-09-13 09:30:00,61.1,53.4,27.18,North,355,5.0,5.0,75,0.00,--,--,0.00,awk and wget,2013-09-13 13:30:00,
2013-09-13 09:35:00,61.0,53.8,27.18,North,352,7.4,7.4,76,0.00,--,--,0.00,awk and wget,2013-09-13 13:35:00,
2013-09-13 09:40:00,60.7,52.2,27.19,NNW,339,13.8,13.8,73,0.00,--,--,0.00,awk and wget,2013-09-13 13:40:00,
2013-09-13 09:45:00,61.1,52.4,27.19,North,5,9.8,9.8,73,0.00,--,--,0.00,awk and wget,2013-09-13 13:45:00,
2013-09-13 09:50:00,61.7,51.6,27.19,North,354,7.2,7.2,69,0.00,--,--,0.00,awk and wget,2013-09-13 13:50:00,
2013-09-13 09:55:00,61.6,51.5,27.19,North,355,6.2,6.2,69,0.00,--,--,0.00,awk and wget,2013-09-13 13:55:00,
2013-09-13 10:00:00,62.4,51.6,27.19,NNE,14,10.3,10.3,67,0.00,--,--,0.00,awk and wget,2013-09-13 14:00:00,
2013-09-13 10:05:00,60.8,51.0,27.20,NNE,24,7.7,7.7,70,0.00,--,--,0.00,awk and wget,2013-09-13 14:05:00,
2013-09-13 10:10:00,60.4,50.9,27.20,North,0,9.7,9.7,70,0.00,--,--,0.00,awk and wget,2013-09-13 14:10:00,
2013-09-13 10:15:00,61.4,51.3,27.20,North,0,6.1,6.1,69,0.00,--,--,0.00,awk and wget,2013-09-13 14:15:00,
2013-09-13 10:20:00,59.9,51.2,27.21,NE,40,11.3,11.3,72,0.00,--,--,0.00,awk and wget,2013-09-13 14:20:00,
2013-09-13 10:25:00,59.3,50.2,27.21,NNE,19,7.1,7.1,71,0.00,--,--,0.00,awk and wget,2013-09-13 14:25:00,
2013-09-13 10:30:00,60.3,50.7,27.21,NNE,16,7.7,7.7,70,0.00,--,--,0.00,awk and wget,2013-09-13 14:30:00,
2013-09-13 10:35:00,61.0,50.9,27.21,NNE,12,7.2,7.2,69,0.00,--,--,0.00,awk and wget,2013-09-13 14:35:00,
2013-09-13 10:40:00,60.4,49.1,27.21,North,1,7.2,7.2,66,0.00,--,--,0.00,awk and wget,2013-09-13 14:40:00,
2013-09-13 10:45:00,61.4,50.1,27.20,North,355,3.0,3.0,66,0.00,--,--,0.00,awk and wget,2013-09-13 14:45:00,
2013-09-13 10:50:00,61.7,49.8,27.21,NNE,30,7.5,7.5,65,0.00,--,--,0.00,awk and wget,2013-09-13 14:50:00,
2013-09-13 10:55:00,59.9,49.2,27.21,NNE,31,8.5,8.5,67,0.00,--,--,0.00,awk and wget,2013-09-13 14:55:00,
2013-09-13 11:00:00,61.2,49.3,27.21,North,1,4.7,4.7,64,0.00,--,--,0.00,awk and wget,2013-09-13 15:00:00,
2013-09-13 11:10:00,60.7,47.8,27.21,NNW,329,4.2,4.2,62,0.00,--,--,0.00,awk and wget,2013-09-13 15:10:00,
2013-09-13 11:15:00,60.1,48.8,27.21,North,4,4.5,4.5,66,0.00,--,--,0.00,awk and wget,2013-09-13 15:15:00,
2013-09-13 11:20:00,59.9,49.2,27.21,NNW,346,12.1,12.1,67,0.00,--,--,0.00,awk and wget,2013-09-13 15:20:00,
2013-09-13 11:25:00,61.5,49.1,27.21,North,358,5.6,5.6,63,0.00,--,--,0.00,awk and wget,2013-09-13 15:25:00,
2013-09-13 11:30:00,61.6,48.3,27.21,NNW,335,10.9,10.9,61,0.00,--,--,0.00,awk and wget,2013-09-13 15:30:00,
2013-09-13 11:35:00,61.4,47.3,27.21,NNW,342,10.2,10.2,59,0.00,--,--,0.00,awk and wget,2013-09-13 15:35:00,
2013-09-13 11:40:00,61.5,48.3,27.21,North,0,10.1,10.1,61,0.00,--,--,0.00,awk and wget,2013-09-13 15:40:00,
2013-09-13 11:45:00,61.8,48.3,27.21,NNW,337,5.1,5.1,61,0.00,--,--,0.00,awk and wget,2013-09-13 15:45:00,
2013-09-13 11:50:00,62.7,48.9,27.21,North,352,7.5,7.5,60,0.00,--,--,0.00,awk and wget,2013-09-13 15:50:00,
2013-09-13 12:00:00,63.3,48.7,27.21,North,11,6.9,6.9,58,0.00,--,--,0.00,awk and wget,2013-09-13 16:00:00,
2013-09-13 12:05:00,63.1,48.7,27.21,NNE,28,3.7,3.7,59,0.00,--,--,0.00,awk and wget,2013-09-13 16:05:00,
2013-09-13 12:10:00,62.0,48.0,27.21,NNE,23,12.1,12.1,60,0.00,--,--,0.00,awk and wget,2013-09-13 16:10:00,
2013-09-13 12:15:00,63.1,48.7,27.21,North,9,3.6,3.6,59,0.00,--,--,0.00,awk and wget,2013-09-13 16:15:00,
2013-09-13 12:20:00,62.5,46.0,27.21,NNW,329,10.2,10.2,54,0.00,--,--,0.00,awk and wget,2013-09-13 16:20:00,
2013-09-13 12:25:00,62.6,48.2,27.21,NNW,344,12.1,12.1,59,0.00,--,--,0.00,awk and wget,2013-09-13 16:25:00,
2013-09-13 12:30:00,62.3,46.4,27.21,NNW,335,6.0,6.0,55,0.00,--,--,0.00,awk and wget,2013-09-13 16:30:00,
2013-09-13 12:35:00,63.0,45.3,27.21,NNW,344,7.8,7.8,52,0.00,--,--,0.00,awk and wget,2013-09-13 16:35:00,
2013-09-13 12:40:00,63.7,47.6,27.21,NW,324,11.2,11.2,55,0.00,--,--,0.00,awk and wget,2013-09-13 16:40:00,
2013-09-13 12:45:00,61.9,46.1,27.21,NNW,337,4.2,4.2,56,0.00,--,--,0.00,awk and wget,2013-09-13 16:45:00,
2013-09-13 12:50:00,62.1,45.2,27.21,NW,325,5.8,5.8,53,0.00,--,--,0.00,awk and wget,2013-09-13 16:50:00,
2013-09-13 12:55:00,64.1,48.5,27.21,NNW,329,5.1,5.1,56,0.00,--,--,0.00,awk and wget,2013-09-13 16:55:00,
2013-09-13 13:00:00,64.3,45.5,27.21,NNW,347,4.4,4.4,50,0.00,--,--,0.00,awk and wget,2013-09-13 17:00:00,
2013-09-13 13:05:00,65.1,48.6,27.21,NNW,327,12.6,12.6,55,0.00,--,--,0.00,awk and wget,2013-09-13 17:05:00,
2013-09-13 13:10:00,63.5,46.0,27.21,NNW,329,11.3,11.3,52,0.00,--,--,0.00,awk and wget,2013-09-13 17:10:00,
2013-09-13 13:15:00,63.3,46.1,27.21,NNW,336,13.8,13.8,53,0.00,--,--,0.00,awk and wget,2013-09-13 17:15:00,
2013-09-13 13:20:00,62.5,46.7,27.21,NNW,330,18.0,18.0,56,0.00,--,--,0.00,awk and wget,2013-09-13 17:20:00,
2013-09-13 13:25:00,62.1,46.7,27.21,NNW,347,7.5,7.5,56,0.00,--,--,0.00,awk and wget,2013-09-13 17:25:00,
2013-09-13 13:30:00,64.0,47.6,27.21,NNW,329,7.8,7.8,55,0.00,--,--,0.00,awk and wget,2013-09-13 17:30:00,
2013-09-13 13:35:00,63.4,46.1,27.20,North,357,7.7,7.7,53,0.00,--,--,0.00,awk and wget,2013-09-13 17:35:00,
2013-09-13 13:40:00,63.6,46.7,27.20,North,8,7.0,7.0,54,0.00,--,--,0.00,awk and wget,2013-09-13 17:40:00,
2013-09-13 13:45:00,63.4,45.2,27.20,NNE,26,5.7,5.7,51,0.00,--,--,0.00,awk and wget,2013-09-13 17:45:00,
2013-09-13 13:50:00,64.6,46.0,27.20,NNE,22,13.6,13.6,50,0.00,--,--,0.00,awk and wget,2013-09-13 17:50:00,
2013-09-13 13:55:00,64.1,44.9,27.20,North,1,9.5,9.5,49,0.00,--,--,0.00,awk and wget,2013-09-13 17:55:00,
2013-09-13 14:00:00,63.2,45.9,27.20,NNW,346,1.6,2.9,53,0.00,--,--,0.00,awk and wget,2013-09-13 18:00:00,
2013-09-13 14:05:00,63.9,46.8,27.20,NNW,341,3.5,3.5,53,0.00,--,--,0.00,awk and wget,2013-09-13 18:05:00,
2013-09-13 14:10:00,64.3,46.4,27.19,NNW,347,9.1,9.1,52,0.00,--,--,0.00,awk and wget,2013-09-13 18:10:00,
2013-09-13 14:15:00,65.3,44.6,27.19,North,359,10.5,10.5,47,0.00,--,--,0.00,awk and wget,2013-09-13 18:15:00,
2013-09-13 14:20:00,64.2,44.6,27.19,NNW,330,10.0,10.0,48,0.00,--,--,0.00,awk and wget,2013-09-13 18:20:00,
2013-09-13 14:25:00,64.4,45.4,27.19,NNE,29,5.8,5.8,49,0.00,--,--,0.00,awk and wget,2013-09-13 18:25:00,
2013-09-13 14:30:00,64.0,45.2,27.20,NNW,340,7.7,7.7,50,0.00,--,--,0.00,awk and wget,2013-09-13 18:30:00,
2013-09-13 14:35:00,63.2,43.6,27.20,NNW,341,9.8,9.8,48,0.00,--,--,0.00,awk and wget,2013-09-13 18:35:00,
2013-09-13 14:40:00,64.8,45.8,27.19,NNW,330,10.5,10.5,50,0.00,--,--,0.00,awk and wget,2013-09-13 18:40:00,
2013-09-13 14:45:00,63.9,46.0,27.19,NNW,329,9.0,9.0,51,0.00,--,--,0.00,awk and wget,2013-09-13 18:45:00,
2013-09-13 14:50:00,63.9,43.6,27.19,NNW,333,10.0,10.0,47,0.00,--,--,0.00,awk and wget,2013-09-13 18:50:00,
2013-09-13 14:55:00,64.0,44.0,27.19,NNW,344,22.1,22.1,48,0.00,--,--,0.00,awk and wget,2013-09-13 18:55:00,
2013-09-13 15:00:00,62.8,43.4,27.20,NNW,346,13.0,13.0,48,0.00,--,--,0.00,awk and wget,2013-09-13 19:00:00,
2013-09-13 15:05:00,62.5,43.2,27.19,North,356,16.4,16.4,49,0.00,--,--,0.00,awk and wget,2013-09-13 19:05:00,
2013-09-13 15:10:00,63.5,46.9,27.19,NNW,340,12.2,12.2,54,0.00,--,--,0.00,awk and wget,2013-09-13 19:10:00,
2013-09-13 15:15:00,64.2,45.6,27.19,NNW,342,10.3,10.3,50,0.00,--,--,0.00,awk and wget,2013-09-13 19:15:00,
2013-09-13 15:20:00,64.7,43.8,27.19,NNE,14,5.3,5.3,46,0.00,--,--,0.00,awk and wget,2013-09-13 19:20:00,
2013-09-13 15:25:00,65.5,45.5,27.19,NNW,331,7.2,7.2,48,0.00,--,--,0.00,awk and wget,2013-09-13 19:25:00,
2013-09-13 15:30:00,65.9,45.0,27.19,NNW,333,6.1,6.1,46,0.00,--,--,0.00,awk and wget,2013-09-13 19:30:00,
2013-09-13 15:35:00,66.0,44.5,27.19,North,357,13.1,13.1,45,0.00,--,--,0.00,awk and wget,2013-09-13 19:35:00,
2013-09-13 15:40:00,65.8,43.9,27.18,North,355,8.6,8.6,45,0.00,--,--,0.00,awk and wget,2013-09-13 19:40:00,
2013-09-13 15:45:00,65.7,44.9,27.18,North,349,6.3,6.3,46,0.00,--,--,0.00,awk and wget,2013-09-13 19:45:00,
2013-09-13 15:50:00,64.9,45.9,27.18,NNW,343,9.9,9.9,50,0.00,--,--,0.00,awk and wget,2013-09-13 19:50:00,
2013-09-13 16:00:00,63.8,45.6,27.19,North,0,11.1,11.1,51,0.00,--,--,0.00,awk and wget,2013-09-13 20:00:00,
2013-09-13 16:05:00,64.9,43.2,27.19,NNW,343,13.6,13.6,45,0.00,--,--,0.00,awk and wget,2013-09-13 20:05:00,
2013-09-13 16:10:00,63.0,43.7,27.19,North,349,8.5,8.5,49,0.00,--,--,0.00,awk and wget,2013-09-13 20:10:00,
2013-09-13 16:15:00,63.2,43.4,27.19,NNW,339,15.5,15.5,48,0.00,--,--,0.00,awk and wget,2013-09-13 20:15:00,
2013-09-13 16:20:00,64.2,44.6,27.19,NNW,340,13.1,13.1,48,0.00,--,--,0.00,awk and wget,2013-09-13 20:20:00,
2013-09-13 16:25:00,63.2,43.7,27.19,NNW,336,12.9,12.9,48,0.00,--,--,0.00,awk and wget,2013-09-13 20:25:00,
2013-09-13 16:30:00,63.9,44.2,27.19,North,352,13.6,13.6,48,0.00,--,--,0.00,awk and wget,2013-09-13 20:30:00,
2013-09-13 16:35:00,63.5,44.0,27.19,NNW,340,14.8,14.8,49,0.00,--,--,0.00,awk and wget,2013-09-13 20:35:00,
2013-09-13 16:40:00,63.6,43.1,27.19,NNW,337,10.6,10.6,47,0.00,--,--,0.00,awk and wget,2013-09-13 20:40:00,
2013-09-13 16:50:00,63.6,44.1,27.19,NNW,340,28.9,28.9,49,0.00,--,--,0.00,awk and wget,2013-09-13 20:50:00,
2013-09-13 17:00:00,63.2,44.1,27.19,NNW,340,6.8,6.8,49,0.00,--,--,0.00,awk and wget,2013-09-13 21:00:00,
2013-09-13 17:05:00,63.7,45.0,27.19,NNW,343,14.2,14.2,50,0.00,--,--,0.00,awk and wget,2013-09-13 21:05:00,
2013-09-13 17:10:00,64.5,45.7,27.20,NNW,343,8.3,8.3,50,0.00,--,--,0.00,awk and wget,2013-09-13 21:10:00,
2013-09-13 17:15:00,64.2,44.7,27.20,NNW,336,16.5,16.5,49,0.00,--,--,0.00,awk and wget,2013-09-13 21:15:00,
2013-09-13 17:20:00,63.2,45.2,27.20,North,3,6.2,6.2,51,0.00,--,--,0.00,awk and wget,2013-09-13 21:20:00,
2013-09-13 17:25:00,61.6,45.0,27.20,NNW,331,13.0,13.0,54,0.00,--,--,0.00,awk and wget,2013-09-13 21:25:00,
2013-09-13 17:30:00,61.0,44.3,27.20,NNW,340,7.7,7.7,53,0.00,--,--,0.00,awk and wget,2013-09-13 21:30:00,
2013-09-13 17:35:00,60.9,44.9,27.21,NNW,348,13.0,13.0,55,0.00,--,--,0.00,awk and wget,2013-09-13 21:35:00,
2013-09-13 17:40:00,61.2,45.3,27.21,NW,326,11.6,11.6,55,0.00,--,--,0.00,awk and wget,2013-09-13 21:40:00,
2013-09-13 17:45:00,61.8,45.5,27.21,North,354,7.0,7.0,54,0.00,--,--,0.00,awk and wget,2013-09-13 21:45:00,
2013-09-13 17:50:00,61.7,45.1,27.21,NNW,343,12.0,12.0,54,0.00,--,--,0.00,awk and wget,2013-09-13 21:50:00,
2013-09-13 17:55:00,61.6,45.1,27.21,NNW,336,11.5,11.5,54,0.00,--,--,0.00,awk and wget,2013-09-13 21:55:00,
2013-09-13 18:00:00,61.6,45.8,27.21,NNW,333,8.3,8.3,55,0.00,--,--,0.00,awk and wget,2013-09-13 22:00:00,
2013-09-13 18:05:00,60.9,46.4,27.21,NNW,347,12.6,12.6,58,0.00,--,--,0.00,awk and wget,2013-09-13 22:05:00,
2013-09-13 18:10:00,59.9,46.6,27.21,North,2,6.7,6.7,61,0.00,--,--,0.00,awk and wget,2013-09-13 22:10:00,
2013-09-13 18:15:00,60.1,45.8,27.21,NNW,336,13.5,13.5,59,0.00,--,--,0.00,awk and wget,2013-09-13 22:15:00,
2013-09-13 18:20:00,59.5,45.4,27.22,North,2,11.2,11.2,59,0.00,--,--,0.00,awk and wget,2013-09-13 22:20:00,
2013-09-13 18:30:00,59.3,45.0,27.22,NNW,343,9.1,9.1,59,0.00,--,--,0.00,awk and wget,2013-09-13 22:30:00,
2013-09-13 18:35:00,59.2,45.5,27.22,North,354,9.0,9.0,60,0.00,--,--,0.00,awk and wget,2013-09-13 22:35:00,
2013-09-13 18:40:00,58.8,45.6,27.22,NNE,28,8.5,8.5,61,0.00,--,--,0.00,awk and wget,2013-09-13 22:40:00,
2013-09-13 18:45:00,58.3,46.2,27.23,North,5,7.7,7.7,64,0.00,--,--,0.00,awk and wget,2013-09-13 22:45:00,
2013-09-13 18:50:00,57.6,45.6,27.23,North,1,15.1,15.1,64,0.00,--,--,0.00,awk and wget,2013-09-13 22:50:00,
2013-09-13 18:55:00,57.2,45.2,27.23,North,3,9.5,9.5,64,0.00,--,--,0.00,awk and wget,2013-09-13 22:55:00,
2013-09-13 19:00:00,57.1,44.5,27.23,North,357,14.2,14.2,62,0.00,--,--,0.00,awk and wget,2013-09-13 23:00:00,
2013-09-13 19:05:00,57.0,44.1,27.23,North,349,12.1,12.1,61,0.00,--,--,0.00,awk and wget,2013-09-13 23:05:00,
2013-09-13 19:10:00,56.9,44.2,27.23,North,9,9.5,9.5,62,0.00,--,--,0.00,awk and wget,2013-09-13 23:10:00,
2013-09-13 19:20:00,56.5,44.4,27.23,North,1,13.8,13.8,63,0.00,--,--,0.00,awk and wget,2013-09-13 23:20:00,
2013-09-13 19:25:00,56.2,44.6,27.23,North,356,7.4,7.4,64,0.00,--,--,0.00,awk and wget,2013-09-13 23:25:00,
2013-09-13 19:30:00,56.0,44.7,27.23,NNW,341,4.8,4.8,65,0.00,--,--,0.00,awk and wget,2013-09-13 23:30:00,
2013-09-13 19:35:00,55.8,44.8,27.23,North,4,11.0,11.0,66,0.00,--,--,0.00,awk and wget,2013-09-13 23:35:00,
2013-09-13 19:40:00,55.6,45.0,27.23,North,353,11.8,11.8,67,0.00,--,--,0.00,awk and wget,2013-09-13 23:40:00,
2013-09-13 19:45:00,55.1,45.2,27.23,NNW,339,6.6,6.6,69,0.00,--,--,0.00,awk and wget,2013-09-13 23:45:00,
2013-09-13 19:50:00,55.0,45.2,27.24,North,357,11.3,11.3,69,0.00,--,--,0.00,awk and wget,2013-09-13 23:50:00,
2013-09-13 20:00:00,54.9,45.5,27.24,NNW,341,9.8,9.8,70,0.00,--,--,0.00,awk and wget,2013-09-14 00:00:00,
2013-09-13 20:05:00,54.8,45.5,27.24,North,349,8.3,8.3,70,0.00,--,--,0.00,awk and wget,2013-09-14 00:05:00,
2013-09-13 20:10:00,54.5,45.7,27.24,NNW,330,9.8,9.8,71,0.00,--,--,0.00,awk and wget,2013-09-14 00:10:00,
2013-09-13 20:15:00,54.8,45.8,27.24,North,350,8.6,8.6,71,0.00,--,--,0.00,awk and wget,2013-09-14 00:15:00,
2013-09-13 20:20:00,54.7,45.9,27.24,North,350,7.3,7.3,72,0.00,--,--,0.00,awk and wget,2013-09-14 00:20:00,
2013-09-13 20:30:00,55.0,46.0,27.25,North,1,10.6,10.6,71,0.00,--,--,0.00,awk and wget,2013-09-14 00:30:00,
2013-09-13 20:35:00,55.2,46.1,27.24,NNE,16,5.3,5.3,71,0.00,--,--,0.00,awk and wget,2013-09-14 00:35:00,
2013-09-13 20:40:00,55.2,46.3,27.25,North,352,10.5,10.5,71,0.00,--,--,0.00,awk and wget,2013-09-14 00:40:00,
2013-09-13 20:45:00,55.2,46.2,27.25,North,4,8.4,8.4,71,0.00,--,--,0.00,awk and wget,2013-09-14 00:45:00,
2013-09-13 20:50:00,55.2,46.4,27.25,North,1,8.9,8.9,72,0.00,--,--,0.00,awk and wget,2013-09-14 00:50:00,
2013-09-13 21:00:00,55.2,46.7,27.26,NNE,21,5.5,5.5,73,0.00,--,--,0.00,awk and wget,2013-09-14 01:00:00,
2013-09-13 21:10:00,55.1,46.9,27.26,North,352,5.8,5.8,73,0.00,--,--,0.00,awk and wget,2013-09-14 01:10:00,
2013-09-13 21:15:00,54.9,46.9,27.26,NNW,329,8.8,8.8,74,0.00,--,--,0.00,awk and wget,2013-09-14 01:15:00,
2013-09-13 21:20:00,54.9,46.8,27.26,NE,35,6.8,6.8,73,0.00,--,--,0.00,awk and wget,2013-09-14 01:20:00,
2013-09-13 21:25:00,54.6,46.8,27.26,NNE,23,4.1,4.1,74,0.00,--,--,0.00,awk and wget,2013-09-14 01:25:00,
2013-09-13 21:30:00,54.9,46.8,27.26,NNE,33,6.4,6.4,73,0.00,--,--,0.00,awk and wget,2013-09-14 01:30:00,
2013-09-13 21:35:00,54.7,47.0,27.27,NNE,27,3.2,3.2,75,0.00,--,--,0.00,awk and wget,2013-09-14 01:35:00,
2013-09-13 21:40:00,54.5,47.2,27.27,NNE,28,3.9,3.9,76,0.00,--,--,0.00,awk and wget,2013-09-14 01:40:00,
2013-09-13 21:45:00,54.4,47.3,27.27,NNE,16,5.5,5.5,76,0.00,--,--,0.00,awk and wget,2013-09-14 01:45:00,
2013-09-13 21:50:00,54.4,47.2,27.27,North,10,6.3,6.3,76,0.00,--,--,0.00,awk and wget,2013-09-14 01:50:00,
2013-09-13 22:00:00,54.4,46.8,27.27,NNE,29,4.3,4.3,75,0.00,--,--,0.00,awk and wget,2013-09-14 02:00:00,
2013-09-13 22:05:00,54.3,46.6,27.27,ENE,73,5.4,5.4,74,0.00,--,--,0.00,awk and wget,2013-09-14 02:05:00,
2013-09-13 22:10:00,54.1,46.7,27.27,NE,53,4.9,4.9,75,0.00,--,--,0.00,awk and wget,2013-09-14 02:10:00,
2013-09-13 22:15:00,53.9,46.5,27.27,NNE,12,1.8,3.0,75,0.00,--,--,0.00,awk and wget,2013-09-14 02:15:00,
2013-09-13 22:20:00,53.8,46.5,27.27,NNE,12,5.2,5.2,76,0.00,--,--,0.00,awk and wget,2013-09-14 02:20:00,
2013-09-13 22:25:00,53.8,46.6,27.28,North,5,8.5,8.5,76,0.00,--,--,0.00,awk and wget,2013-09-14 02:25:00,
2013-09-13 22:30:00,53.8,46.2,27.27,NNE,28,4.0,4.0,75,0.00,--,--,0.00,awk and wget,2013-09-14 02:30:00,
2013-09-13 22:35:00,53.8,46.0,27.27,North,4,8.0,8.0,75,0.00,--,--,0.00,awk and wget,2013-09-14 02:35:00,
2013-09-13 22:40:00,53.8,46.0,27.28,NNE,28,4.5,4.5,74,0.00,--,--,0.00,awk and wget,2013-09-14 02:40:00,
2013-09-13 22:45:00,53.6,46.2,27.28,North,6,3.1,3.1,75,0.00,--,--,0.00,awk and wget,2013-09-14 02:45:00,
2013-09-13 22:50:00,53.6,45.9,27.27,NNE,20,5.2,5.2,75,0.00,--,--,0.00,awk and wget,2013-09-14 02:50:00,
2013-09-13 23:00:00,53.4,46.0,27.27,NE,44,4.8,4.8,75,0.00,--,--,0.00,awk and wget,2013-09-14 03:00:00,
2013-09-13 23:05:00,53.3,46.1,27.28,NNE,28,5.3,5.3,76,0.00,--,--,0.00,awk and wget,2013-09-14 03:05:00,
2013-09-13 23:10:00,53.3,46.1,27.28,NE,38,26.9,26.9,76,0.00,--,--,0.00,awk and wget,2013-09-14 03:10:00,
2013-09-13 23:15:00,53.2,45.9,27.28,NE,37,5.1,5.1,76,0.00,--,--,0.00,awk and wget,2013-09-14 03:15:00,
2013-09-13 23:20:00,53.0,45.7,27.29,NNE,21,6.0,6.0,76,0.00,--,--,0.00,awk and wget,2013-09-14 03:20:00,
2013-09-13 23:25:00,52.7,44.7,27.29,NE,41,9.7,9.7,73,0.00,--,--,0.00,awk and wget,2013-09-14 03:25:00,
2013-09-13 23:30:00,52.5,44.4,27.29,NNE,32,15.3,15.3,73,0.00,--,--,0.00,awk and wget,2013-09-14 03:30:00,
2013-09-13 23:35:00,52.3,44.2,27.29,NNE,33,10.6,10.6,73,0.00,--,--,0.00,awk and wget,2013-09-14 03:35:00,
2013-09-13 23:40:00,52.1,44.0,27.29,NNE,33,11.5,11.5,73,0.00,--,--,0.00,awk and wget,2013-09-14 03:40:00,
2013-09-13 23:45:00,51.9,44.0,27.29,NNE,21,4.7,4.7,74,0.00,--,--,0.00,awk and wget,2013-09-14 03:45:00,
2013-09-13 23:50:00,51.8,43.9,27.29,NNE,19,8.0,8.0,74,0.00,--,--,0.00,awk and wget,2013-09-14 03:50:00,